Glasgow, KY

2:17 AM CDT on September 28, 2016 (GMT -0500)
Glasgow Municipal

Weather History for KGLW - November, 2011

Change the Weather History Date:

Wednesday, November 16, 2011

  Actual Average Record
Temperature  
Mean Temperature 50 °F -  
Max Temperature 56 °F 57 °F 76 °F (1964)
Min Temperature 44 °F 37 °F 21 °F (1967)
Degree Days  
Heating Degree Days 14    
Moisture  
Dew Point 47 °F    
Average Humidity 85    
Maximum Humidity 100    
Minimum Humidity 62    
Precipitation  
Precipitation 1.42 in - - ()
Sea Level Pressure  
Sea Level Pressure 29.91 in    
Wind  
Wind Speed 5 mph (NNE)    
Max Wind Speed 15 mph    
Max Gust Speed 24 mph    
Visibility 8 miles    
Events Rain , Thunderstorm    
Averages and records for this station are not official NWS values.
T = Trace of Precipitation, MM = Missing Value Source: NWS Daily Summary

Daily Weather History Graph

Daily Weather History Graph

Search for Another Location

Airport or City:

Trip Planner

Search our weather history database for the weather conditions in past years. The results will help you decide how hot, cold, wet, or windy it might be!

Date:

Astronomy

Nov. 16, 2011 Rise Set
Actual Time 6:23 AM CST 4:33 PM CST
Civil Twilight 5:55 AM CST 5:01 PM CST
Nautical Twilight 5:24 AM CST 5:32 PM CST
Astronomical Twilight 4:53 AM CST 6:03 PM CST
Moon 9:45 PM CST (11/16) 10:59 AM CST (11/16)
Length of Visible Light 11h 05m
Length of Day
10h 10m
Waning Gibbous, 70% of the Moon is Illuminated
Nov 16
Waning Gibbous
Nov 18
Last Quarter
Nov 25
New
Dec 2
First Quarter
Dec 10
Full

Hourly Weather History & Observations

Time (CST) Temp. Windchill Dew Point Humidity Pressure Visibility Wind Dir Wind Speed Gust Speed Precip Events Conditions
12:15 AM 54.0 °F - - N/A% 29.83 in 2.5 mi Calm Calm - N/A   Overcast
12:55 AM 54.7 °F - - N/A% 29.80 in 5.0 mi East 3.5 mph - N/A   Haze
1:15 AM 54.7 °F - - N/A% 29.79 in 7.0 mi Calm Calm - N/A   Overcast
1:35 AM 54.9 °F - - N/A% 29.78 in 7.0 mi NE 3.5 mph - N/A   Drizzle
2:15 AM 54.9 °F - - N/A% 29.76 in 4.0 mi NE 4.6 mph - 0.09 in Rain , Thunderstorm Rain
2:35 AM 54.9 °F - - N/A% 29.76 in 10.0 mi East 4.6 mph - 0.11 in Rain , Thunderstorm Light Thunderstorms and Rain
2:55 AM 55.2 °F - - N/A% 29.79 in 10.0 mi NNW 13.8 mph 24.2 mph 0.12 in Rain , Thunderstorm Light Thunderstorms and Rain
3:15 AM 56.1 °F - - N/A% 29.79 in 2.5 mi North 10.4 mph - 0.30 in Rain , Thunderstorm Heavy Thunderstorms and Rain
3:35 AM 55.6 °F - - N/A% 29.81 in 4.0 mi NNW 4.6 mph - 0.58 in Rain , Thunderstorm Heavy Thunderstorms and Rain
3:55 AM 55.6 °F - - N/A% 29.83 in 4.0 mi WNW 3.5 mph - 0.77 in Rain , Thunderstorm Heavy Thunderstorms and Rain
4:15 AM 56.1 °F - - N/A% 29.83 in 5.0 mi NW 6.9 mph - 0.09 in Rain Rain
4:55 AM 56.5 °F - 56.7 °F 100% 29.81 in 10.0 mi NNE 10.4 mph 20.7 mph 0.18 in Rain Light Rain
5:15 AM 56.3 °F - 56.5 °F 100% 29.81 in 10.0 mi NNE 10.4 mph 18.4 mph N/A   Overcast
5:35 AM - - - N/A% 29.81 in 10.0 mi NNE 8.1 mph - N/A   Overcast
5:55 AM 55.8 °F - 55.9 °F 100% 29.83 in 10.0 mi NNE 5.8 mph - N/A Rain Rain
6:15 AM 55.8 °F - 55.9 °F 100% 29.84 in 10.0 mi NNE 11.5 mph - 0.02 in Rain Rain
6:35 AM 55.0 °F - 55.2 °F 100% 29.86 in 5.0 mi North 10.4 mph 17.3 mph 0.06 in Rain Rain
6:55 AM 54.5 °F - 54.7 °F 100% 29.88 in 7.0 mi North 5.8 mph - 0.09 in Rain Rain
7:15 AM 54.1 °F - 54.3 °F 100% 29.87 in 10.0 mi NE 5.8 mph - 0.02 in Rain Light Rain
7:35 AM 53.8 °F - 54.0 °F 100% 29.89 in 10.0 mi NNE 5.8 mph - 0.02 in Rain Light Rain
7:55 AM 53.8 °F - 54.0 °F 100% 29.89 in 10.0 mi NE 4.6 mph - 0.03 in Rain Light Rain
8:35 AM - - - N/A% 29.89 in 10.0 mi ENE 5.8 mph - N/A   Overcast
8:55 AM - - - N/A% 29.89 in 10.0 mi NE 5.8 mph - N/A Rain Light Rain
9:15 AM - - - N/A% 29.90 in 10.0 mi NE 3.5 mph - 0.01 in Rain Rain
9:35 AM 54.1 °F - - N/A% 29.90 in 7.0 mi Calm Calm - 0.01 in Rain Light Rain
9:55 AM 54.1 °F - - N/A% 29.91 in 5.0 mi Calm Calm - 0.02 in Rain Rain
10:15 AM 54.1 °F - - N/A% 29.91 in 4.0 mi North 3.5 mph - 0.03 in Rain Rain
10:35 AM 54.1 °F - - N/A% 29.91 in 4.0 mi North 4.6 mph - 0.07 in Rain Rain
10:55 AM 54.0 °F - - N/A% 29.91 in 2.5 mi Calm Calm - 0.13 in Rain Rain
11:15 AM 54.0 °F - - N/A% 29.89 in 3.0 mi NE 3.5 mph - 0.05 in Rain Rain
11:55 AM 54.7 °F - - N/A% 29.88 in 10.0 mi NE 5.8 mph - 0.07 in Rain Light Rain
12:15 PM 55.0 °F - 55.8 °F 100% 29.88 in 10.0 mi NE 5.8 mph - N/A   Mostly Cloudy
12:55 PM 55.0 °F - 55.0 °F 100% 29.88 in 10.0 mi NNE 8.1 mph - N/A   Overcast
1:15 PM 55.4 °F - 54.0 °F 95% 29.89 in 10.0 mi NE 8.1 mph - N/A   Overcast
1:55 PM 55.6 °F - 49.1 °F 79% 29.90 in 10.0 mi NNE 6.9 mph - N/A Rain Light Rain
2:15 PM 54.9 °F - 49.5 °F 82% 29.90 in 10.0 mi North 6.9 mph - N/A Rain Rain
2:35 PM 54.9 °F - 49.5 °F 82% 29.92 in 10.0 mi North 9.2 mph - N/A   Light Drizzle
2:55 PM 53.8 °F - 48.4 °F 82% 29.93 in 7.0 mi North 9.2 mph - N/A Rain Rain
3:15 PM 52.5 °F - 51.8 °F 97% 29.95 in 10.0 mi North 5.8 mph - N/A   Overcast
3:35 PM 52.3 °F - 52.5 °F 100% 29.95 in 5.0 mi North 12.7 mph - N/A Rain Rain
3:55 PM 51.3 °F - 51.4 °F 100% 29.96 in 4.0 mi North 15.0 mph 18.4 mph 0.01 in Rain Light Rain
4:15 PM 51.1 °F - 49.3 °F 94% 29.98 in 7.0 mi North 5.8 mph - N/A   Overcast
4:35 PM 50.9 °F - 47.1 °F 87% 29.99 in 10.0 mi North 8.1 mph - N/A   Overcast
4:55 PM 50.4 °F - 45.5 °F 83% 30.00 in 10.0 mi North 6.9 mph - N/A   Overcast
5:55 PM 50.0 °F - 43.5 °F 78% 30.02 in 10.0 mi North 9.2 mph - N/A   Overcast
6:15 PM 49.5 °F - 40.5 °F 71% 30.04 in 10.0 mi North 11.5 mph - N/A   Overcast
6:35 PM 48.7 °F - 37.9 °F 66% 30.04 in 10.0 mi North 11.5 mph 17.3 mph N/A   Overcast
6:55 PM 48.0 °F - 36.3 °F 64% 30.05 in 10.0 mi North 11.5 mph - N/A   Overcast
7:15 PM 47.7 °F - 35.2 °F 62% 30.06 in 10.0 mi North 9.2 mph - N/A   Overcast
7:35 PM 46.9 °F - 35.1 °F 63% 30.07 in 10.0 mi North 8.1 mph - N/A   Overcast
7:55 PM 46.4 °F 42.9 °F 34.0 °F 62% 30.07 in 10.0 mi North 6.9 mph - N/A   Mostly Cloudy
8:15 PM 45.7 °F 43.4 °F 33.3 °F 62% 30.07 in 10.0 mi NNE 4.6 mph - N/A   Scattered Clouds
8:35 PM 45.1 °F 43.7 °F 33.4 °F 64% 30.08 in 10.0 mi NE 3.5 mph - N/A   Scattered Clouds
8:55 PM 44.4 °F 42.0 °F 32.4 °F 63% 30.06 in 10.0 mi NE 4.6 mph - N/A   Scattered Clouds
9:35 PM 41.4 °F 37.6 °F 31.3 °F 67% 30.10 in 10.0 mi North 5.8 mph - N/A   Clear
9:55 PM 40.6 °F 35.4 °F 29.7 °F 65% 30.09 in 10.0 mi North 8.1 mph - N/A   Clear
10:15 PM 40.1 °F 34.7 °F 27.9 °F 62% 30.11 in 10.0 mi NNW 8.1 mph - N/A   Clear
10:35 PM 39.7 °F 34.3 °F 26.2 °F 59% 30.13 in 10.0 mi North 8.1 mph - N/A   Scattered Clouds
10:55 PM 39.6 °F 33.0 °F 26.2 °F 59% 30.13 in 10.0 mi North 10.4 mph - N/A   Mostly Cloudy
11:15 PM 39.4 °F 34.5 °F 26.2 °F 59% 30.13 in 10.0 mi North 6.9 mph - N/A   Mostly Cloudy
11:35 PM 39.0 °F 34.0 °F 26.8 °F 62% 30.13 in 10.0 mi North 6.9 mph - N/A   Mostly Cloudy
11:55 PM 39.4 °F 35.2 °F 27.0 °F 61% 30.14 in 10.0 mi NNW 5.8 mph - N/A   Overcast